Lambertville, MI

3:17 PM EDT on August 18, 2017 (GMT -0400)
Lambertville

Weather History for KDUH - March, 2012

Change the Weather History Date:

Sunday, March 25, 2012

  Actual Average (KTOL) Record (KTOL)
Temperature  
Mean Temperature 60 °F -  
Max Temperature 70 °F 45 °F 82 °F (1945)
Min Temperature 49 °F 26 °F -4 °F (1974)
Degree Days  
Heating Degree Days 6    
Growing Degree Days 10 (Base 50)    
Moisture  
Dew Point 50 °F    
Average Humidity 79    
Maximum Humidity 94    
Minimum Humidity 51    
Precipitation  
Precipitation 0.00 in - - ()
Sea Level Pressure  
Sea Level Pressure 29.91 in    
Wind  
Wind Speed 3 mph (NNW)    
Max Wind Speed 9 mph    
Max Gust Speed -    
Visibility 6 miles    
Events      
Averages and records for this station are not official NWS values.
T = Trace of Precipitation, MM = Missing Value Source: NWS Daily Summary

Daily Weather History Graph

Daily Weather History Graph

Search for Another Location

Airport or City:

Trip Planner

Search our weather history database for the weather conditions in past years. The results will help you decide how hot, cold, wet, or windy it might be!

Date:

Astronomy

Mar. 25, 2012 Rise Set
Actual Time 7:28 AM EDT 7:52 PM EDT
Civil Twilight 7:00 AM EDT 8:20 PM EDT
Nautical Twilight 6:28 AM EDT 8:53 PM EDT
Astronomical Twilight 5:54 AM EDT 9:27 PM EDT
Moon 8:37 AM EDT (3/25) 11:11 PM EDT (3/25)
Length of Visible Light 13h 20m
Length of Day
12h 24m
Waxing Crescent, 8% of the Moon is Illuminated
Mar 25
Waxing Crescent
Mar 30
First Quarter
Apr 6
Full
Apr 13
Last Quarter
Apr 21
New

Hourly Weather History & Observations

Time (EDT) Temp. Dew Point Humidity Pressure Visibility Wind Dir Wind Speed Gust Speed Precip Events Conditions
12:15 AM 49.5 °F 47.3 °F 92% 29.88 in 3.0 mi East 3.5 mph - N/A   Overcast
12:35 AM 49.6 °F 47.7 °F 93% 29.87 in 3.0 mi SE 4.6 mph - N/A   Overcast
12:55 AM 50.0 °F 48.2 °F 94% 29.88 in 3.0 mi Calm Calm - N/A   Overcast
1:15 AM 50.2 °F 48.2 °F 93% 29.89 in 3.0 mi East 3.5 mph - N/A   Overcast
1:35 AM 50.2 °F 48.2 °F 93% 29.88 in 3.0 mi Calm Calm - N/A   Overcast
1:55 AM 50.4 °F 48.4 °F 93% 29.88 in 3.0 mi NNW 3.5 mph - N/A   Overcast
2:14 AM 51.3 °F 49.1 °F 92% 29.88 in 3.0 mi Calm Calm - N/A   Overcast
2:35 AM 52.0 °F 49.5 °F 91% 29.88 in 3.0 mi Calm Calm - N/A   Overcast
2:55 AM 52.2 °F 49.3 °F 90% 29.88 in 4.0 mi Calm Calm - N/A   Overcast
3:15 AM 52.7 °F 49.5 °F 89% 29.88 in 3.0 mi NW 3.5 mph - N/A   Overcast
3:35 AM 51.8 °F 49.3 °F 91% 29.88 in 3.0 mi Calm Calm - N/A   Overcast
3:55 AM 52.2 °F 49.5 °F 91% 29.88 in 3.0 mi NNW 3.5 mph - N/A   Overcast
4:15 AM 52.2 °F 49.8 °F 92% 29.88 in 2.5 mi Calm Calm - N/A   Overcast
4:35 AM 52.7 °F 50.2 °F 91% 29.88 in 1.8 mi Calm Calm - N/A   Overcast
4:55 AM 52.0 °F 50.0 °F 93% 29.88 in 1.5 mi Calm Calm - N/A   Overcast
5:15 AM 52.2 °F 50.2 °F 93% 29.87 in 1.5 mi Calm Calm - N/A   Overcast
5:35 AM 52.3 °F 50.4 °F 93% 29.88 in 1.8 mi Calm Calm - N/A   Overcast
5:55 AM 53.1 °F 51.1 °F 93% 29.89 in 2.0 mi Calm Calm - N/A   Overcast
6:15 AM 53.8 °F 51.8 °F 93% 29.89 in 1.8 mi West 3.5 mph - N/A   Overcast
6:35 AM 54.1 °F 51.8 °F 92% 29.90 in 2.0 mi Calm Calm - N/A   Overcast
6:55 AM 54.5 °F 51.8 °F 91% 29.90 in 3.0 mi NW 4.6 mph - N/A   Overcast
7:15 AM 54.7 °F 52.0 °F 91% 29.90 in 4.0 mi Calm Calm - N/A   Overcast
7:35 AM 55.0 °F 52.0 °F 89% 29.90 in 4.0 mi NW 3.5 mph - N/A   Overcast
7:55 AM 54.5 °F 51.8 °F 91% 29.91 in 4.0 mi Calm Calm - N/A   Overcast
8:14 AM 54.5 °F 51.8 °F 91% 29.91 in 3.0 mi Calm Calm - N/A   Overcast
8:35 AM 54.5 °F 51.4 °F 89% 29.92 in 4.0 mi NW 5.8 mph - N/A   Overcast
8:55 AM 54.5 °F 50.9 °F 88% 29.92 in 4.0 mi NNW 5.8 mph - N/A   Overcast
9:15 AM 54.5 °F 50.0 °F 85% 29.93 in 7.0 mi NNW 6.9 mph - N/A   Overcast
9:35 AM 54.3 °F 49.1 °F 83% 29.93 in 10.0 mi NNW 8.1 mph - N/A   Overcast
9:55 AM 54.3 °F 49.3 °F 83% 29.93 in 7.0 mi North 5.8 mph - N/A   Overcast
10:15 AM 54.5 °F 48.6 °F 80% 29.94 in 10.0 mi North 8.1 mph - N/A   Overcast
10:35 AM 55.4 °F 48.6 °F 78% 29.94 in 10.0 mi NNW 9.2 mph - N/A   Overcast
10:55 AM 56.1 °F 49.1 °F 77% 29.95 in 10.0 mi NNW 9.2 mph - N/A   Overcast
11:15 AM 56.3 °F 48.9 °F 76% 29.95 in 10.0 mi North 6.9 mph - N/A   Overcast
11:35 AM 56.8 °F 48.9 °F 75% 29.95 in 10.0 mi NNW 9.2 mph - N/A   Overcast
11:55 AM 57.4 °F 48.9 °F 73% 29.96 in 10.0 mi North 6.9 mph - N/A   Overcast
12:14 PM 58.1 °F 49.5 °F 73% 29.96 in 10.0 mi North 6.9 mph - N/A   Overcast
12:35 PM 59.7 °F 50.2 °F 71% 29.96 in 10.0 mi North 5.8 mph - N/A   Overcast
12:55 PM 61.3 °F 50.7 °F 68% 29.95 in 10.0 mi NNE 6.9 mph - N/A   Scattered Clouds
1:15 PM 62.2 °F 50.5 °F 65% 29.95 in 10.0 mi Calm Calm - N/A   Clear
1:35 PM 63.5 °F 51.1 °F 64% 29.95 in 10.0 mi North 3.5 mph - N/A   Scattered Clouds
1:55 PM 64.0 °F 50.9 °F 62% 29.95 in 10.0 mi NNE 4.6 mph - N/A   Scattered Clouds
2:15 PM 65.8 °F 51.6 °F 60% 29.95 in 10.0 mi North 8.1 mph - N/A   Scattered Clouds
2:34 PM 66.2 °F 51.4 °F 59% 29.94 in 10.0 mi NNE 3.5 mph - N/A   Scattered Clouds
2:55 PM 67.1 °F 50.7 °F 56% 29.93 in 10.0 mi NW 4.6 mph - N/A   Scattered Clouds
3:15 PM 68.5 °F 51.6 °F 55% 29.93 in 10.0 mi NNW 5.8 mph - N/A   Scattered Clouds
3:35 PM 68.9 °F 51.4 °F 54% 29.93 in 10.0 mi WNW 8.1 mph - N/A   Scattered Clouds
3:55 PM 68.7 °F 51.3 °F 54% 29.92 in 10.0 mi NNW 3.5 mph - N/A   Scattered Clouds
4:15 PM 69.8 °F 52.5 °F 54% 29.92 in 10.0 mi NE 4.6 mph - N/A   Mostly Cloudy
4:35 PM 70.5 °F 52.9 °F 54% 29.92 in 10.0 mi North 3.5 mph - N/A   Mostly Cloudy
4:55 PM 69.8 °F 51.6 °F 52% 29.91 in 10.0 mi West 6.9 mph - N/A   Overcast
5:15 PM 70.3 °F 51.4 °F 51% 29.92 in 10.0 mi South 3.5 mph - N/A   Mostly Cloudy
5:35 PM 71.1 °F 50.5 °F 48% 29.92 in 10.0 mi NNW 6.9 mph - N/A   Scattered Clouds
5:55 PM 70.7 °F 48.9 °F 46% 29.92 in 10.0 mi NNW 9.2 mph - N/A   Clear
6:15 PM 70.5 °F 48.0 °F 45% 29.92 in 10.0 mi North 9.2 mph - N/A   Clear
6:35 PM 69.8 °F 48.4 °F 46% 29.93 in 10.0 mi NNW 6.9 mph - N/A   Scattered Clouds
6:55 PM 69.4 °F 48.4 °F 47% 29.93 in 10.0 mi NW 9.2 mph - N/A   Scattered Clouds
7:14 PM 68.4 °F 46.9 °F 46% 29.94 in 10.0 mi NNW 8.1 mph - N/A   Clear
7:35 PM 67.1 °F 47.7 °F 50% 29.94 in 10.0 mi NNW 5.8 mph - N/A   Clear
7:55 PM 65.5 °F 48.2 °F 54% 29.94 in 10.0 mi NNW 3.5 mph - N/A   Clear
8:15 PM 63.9 °F 48.0 °F 56% 29.94 in 10.0 mi Calm Calm - N/A   Clear
8:35 PM 61.7 °F 50.7 °F 67% 29.95 in 10.0 mi Calm Calm - N/A   Clear
8:55 PM 58.8 °F 51.1 °F 75% 29.95 in 10.0 mi Calm Calm - N/A   Clear
9:15 PM 58.3 °F 50.5 °F 75% 29.96 in 10.0 mi Calm Calm - N/A   Clear
9:34 PM 57.7 °F 51.1 °F 78% 29.97 in 10.0 mi Calm Calm - N/A   Scattered Clouds
9:55 PM 62.2 °F 46.6 °F 57% 29.98 in 10.0 mi North 6.9 mph - N/A   Scattered Clouds
10:14 PM 62.1 °F 41.9 °F 48% 29.99 in 10.0 mi North 8.1 mph 17.3 mph N/A   Clear
10:35 PM 59.9 °F 39.2 °F 46% 30.00 in 10.0 mi North 8.1 mph - N/A   Clear
10:55 PM 59.4 °F 36.0 °F 42% 30.01 in 10.0 mi North 8.1 mph - N/A   Clear
11:15 PM 59.0 °F 35.1 °F 41% 30.03 in 10.0 mi North 11.5 mph 16.1 mph N/A   Clear
11:35 PM 58.1 °F 34.9 °F 42% 30.03 in 10.0 mi North 8.1 mph - N/A   Clear
11:55 PM 56.8 °F 34.9 °F 44% 30.04 in 10.0 mi North 5.8 mph - N/A   Clear